Regional Weather Roundup
Issued by NWS

Current Version | Previous Version | Text Only | Print | Product List | Glossary Off
Versions: 1 2 3 4 5 6 7 8 9 10 11 12 13 14 15 16 17 18 19 20 21 22 23 24 25 26 27 28 29 30 31 32 33 34 35 36 37 38 39 40 41 42 43 44 45 46 47 48 49 50

000
ASUS44 KMEG 111710
RWRTN
TENNESSEE HOURLY STATE WEATHER ROUNDUP
NATIONAL WEATHER SERVICE MEMPHIS TN
1100 AM CST MON DEC 11 2017

TNZ002-004-019-021-049-052-054-088>092-111800-
WEST TENNESSEE

CITY           SKY/WX    TMP DP  RH WIND       PRES   REMARKS
MEMPHIS INTL   SUNNY     58  29  33 SW8       30.12F
NWS MEMPHIS      N/A     56 N/A N/A MISG        N/A
JACKSON        SUNNY     57  30  35 SW8G20    30.09F
DYERSBURG      SUNNY     57  28  33 SW16      30.07F
SOMERVILLE     SUNNY     55  30  38 SW10      30.09F
COVINGTON      SUNNY     57  30  35 SW12      30.10F
UNION CITY     SUNNY     55  32  41 SW10G16   30.05F
BOLIVAR        SUNNY     59  28  31 SW10G18   30.10F
PARIS          SUNNY     54  30  40 SW13      30.05F
HUNTINGDON     SUNNY     55  30  38 SW8       30.07F
LEXINGTON      SUNNY     52  32  46 S6        30.09F
SAVANNAH       SUNNY     54  32  43 SW8       30.10F
$$

TNZ008-025-027-028-033-062-065-066-111800-
NORTH MIDDLE TENNESSEE

CITY           SKY/WX    TMP DP  RH WIND       PRES   REMARKS
NASHVILLE      SUNNY     53  30  41 SW10      30.10F
PORTLAND       SUNNY     48  30  49 S14       30.05F
CLARKSVILLE    SUNNY     50  28  42 S13       30.07F
SMYRNA         SUNNY     52  31  44 S9        30.10F
COOKEVILLE     SUNNY     48  30  49 S9G15     30.07F
GALLATIN       SUNNY     50  30  46 S6G13     30.10F
CROSSVILLE     SUNNY     48  27  44 S9        30.08F
$$

TNZ061-075-076-078-094-096-097-111800-
SOUTH MIDDLE TENNESSEE

CITY           SKY/WX    TMP DP  RH WIND       PRES   REMARKS
FAYETTEVILLE   SUNNY     50  30  46 SW9       30.10F
TULLAHOMA      SUNNY     52  30  43 S9        30.09F
WINCHESTER     SUNNY     52  30  43 CALM      30.11F
MCMINNVILLE    SUNNY     50  30  46 SW9       30.08F
COLUMBIA       SUNNY     54  30  40 SW9G16    30.08F
SHELBYVILLE    SUNNY     52  32  46 S12       30.10F
$$

TNZ017-018-042-046-047-111800-
NORTHEAST TENNESSEE

CITY           SKY/WX    TMP DP  RH WIND       PRES   REMARKS
TRI CITIES     MOSUNNY   43  27  53 CALM      30.09F
ELIZABETHTON   SUNNY     45  28  53 SW7       30.09F
$$

TNZ012-013-036-069-073-074-111800-
CENTRAL EAST TENNESSEE

CITY           SKY/WX    TMP DP  RH WIND       PRES   REMARKS
KNOXVILLE      SUNNY     48  32  53 SW10      30.09F
OAK RIDGE      SUNNY     45  29  53 VRB3      30.12F
DOWNTOWN KNOXV SUNNY     48  30  49 SW10G16   30.11F
GATLINBURG     SUNNY     50  28  43 N6        30.09F
MORRISTOWN     SUNNY     46  27  46 W9        30.08F
JACKSBORO      SUNNY     45  28  53 CALM      30.12F
$$

TNZ083-085-099-111800-
SOUTHEAST TENNESSEE

CITY           SKY/WX    TMP DP  RH WIND       PRES   REMARKS
CHATTANOOGA    SUNNY     49  29  46 SW6       30.13F
DAYTON         SUNNY     48  34  57 SW7       30.11F
$$

SKY/WX REPORTED AS FAIR MEANS FEW OR NO CLOUDS BELOW
12 THOUSAND FEET.




USA.gov is the U.S. government's official web portal to all federal, state and local government web resources and services.